RH
47 44 38 34 36 46 43 32 59 61 55 48 54 57 52 52 64 76 72 70 81 86 75 66 60 56 36 25 22 19 16 15
23 19 39 33 22 24 33 39 48 20 11 14 20 24 22 26 39 54 60 62 54 49 38 39 24 24 23 22 21 18 17 17
10 13 12 13 16 18 20 18 31 48 16 14 12 11 10 24 46 52 53 71 82 71 64 26 25 21 21 21 20 19 18 16
13 9 9 12 13 12 10 9 9 10 12 7 8 7 7 11 13 19 32 66 79 88 66 67 22 27 24 20 19 22 23 33
16 18 12 10 9 9 9 10 11 11 10 10 9 8 12 21 21 21 22 29 30 59 68 66 67 50 47 53 49 54 56 61
19 15 19 15 14 12 11 12 13 15 17 13 10 8 15 21 29 30 27 25 33 27 39 74 92 71 72 90 73 68 79 81
42 28 27 37 43 46 51 29 34 34 21 16 18 18 20 41 45 39 35 35 48 63 56 62 83 83 90 84 96 88 86 53
44 38 31 29 30 32 36 45 45 40 32 25 20 18 16 36 70 50 43 40 51 73 79 98 96 95 92 82 94 95 73 51
36 35 37 33 29 35 33 31 41 46 43 32 27 29 30 28 31 31 57 78 83 96 99 99 96 96 94 93 97 94 60 42
37 41 37 30 50 64 26 29 32 37 42 44 34 32 41 34 29 55 85 68 96 100 98 99 98 97 98 89 97 67 32 14
39 31 25 33 40 50 43 34 29 40 48 62 88 46 52 62 33 35 79 53 83 96 98 96 99 97 98 98 91 48 14 15
41 35 26 23 27 33 39 63 58 59 82 97 94 98 98 86 96 78 86 91 98 97 96 96 98 97 81 60 34 14 15 30
54 38 42 32 35 33 26 19 49 64 91 93 96 88 99 71 97 99 97 97 98 97 92 89 66 78 66 32 30 11 16 15
72 59 56 51 37 34 35 25 12 15 51 87 97 99 96 99 96 90 84 88 97 94 60 60 72 62 34 23 12 16 14 15
69 72 83 52 51 37 28 23 15 17 47 51 69 72 93 82 65 71 57 64 53 60 73 70 52 30 26 14 16 15 16 16
65 76 66 58 46 42 38 30 21 14 14 15 27 46 45 45 51 55 44 50 50 60 75 46 26 28 15 14 15 16 15 17
74 80 63 62 38 42 38 28 18 17 15 32 44 40 40 40 51 58 63 65 46 34 36 30 27 15 14 16 16 15 16 22
65 52 44 43 30 30 27 15 13 18 25 39 41 39 52 58 58 59 57 27 20 26 28 20 15 14 16 18 15 14 16 36
82 82 37 66 41 17 12 16 25 26 39 53 48 43 46 46 57 35 18 20 30 31 18 17 15 17 18 15 15 17 35 59
Wind_Speed
9 8 13 16 17 18 19 19 16 14 13 9 10 12 11 9 10 14 17 19 19 17 16 17 18 19 19 21 21 21 21 21
6 5 8 10 11 13 13 13 12 12 13 13 11 9 8 9 9 8 11 16 15 15 17 21 21 20 21 20 20 21 23 24
3 4 5 6 7 8 10 11 10 9 11 11 11 8 7 10 11 10 13 12 16 19 20 17 18 19 19 18 21 26 27 27
2 3 7 9 10 11 10 11 13 12 11 12 11 8 7 8 6 8 7 13 17 16 16 17 19 20 20 23 26 28 28 31
4 2 5 9 9 10 9 9 10 9 9 8 8 8 7 6 3 3 6 8 13 14 16 19 20 19 20 23 24 26 30 31
2 4 3 1 2 4 5 5 4 4 4 4 5 6 4 3 3 5 8 10 12 17 19 22 21 18 19 20 23 22 25 26
4 2 3 1 1 3 2 2 2 3 4 4 3 4 5 8 9 8 10 10 12 16 19 21 19 21 20 19 26 31 26 25
5 5 5 4 4 5 6 8 8 9 9 8 8 9 10 13 11 11 12 13 14 21 24 25 19 21 19 20 24 24 27 31
11 9 11 12 11 6 8 11 14 13 13 13 12 13 14 16 17 18 16 20 25 26 27 31 29 24 21 20 24 25 30 34
7 10 12 14 10 12 14 15 18 18 16 19 20 21 16 18 20 20 22 23 16 25 22 30 28 22 24 21 24 28 33 36
12 12 11 10 11 13 17 17 18 17 19 20 25 25 24 22 23 26 27 29 24 26 19 24 27 21 25 23 28 33 35 36
14 15 14 13 14 14 15 19 21 24 23 26 26 31 32 35 34 36 36 35 33 37 28 22 22 24 26 29 33 34 36 38
20 19 21 19 18 17 16 17 20 24 27 31 30 32 34 36 38 44 29 47 40 31 22 23 28 29 29 33 35 37 39 40
22 26 28 23 24 23 20 20 19 21 26 30 28 33 35 28 27 26 24 23 20 30 24 27 29 31 33 35 36 38 39 42
22 18 25 21 23 22 21 20 20 22 23 26 28 29 27 26 30 28 25 31 29 30 31 32 33 34 36 36 37 39 43 47
28 16 18 21 21 23 26 28 27 27 25 28 28 27 28 29 29 28 30 32 34 35 35 35 37 38 37 37 39 43 48 52
24 20 31 29 29 30 24 28 30 32 31 31 29 28 28 29 28 30 31 34 37 38 39 39 37 36 37 40 44 49 53 56
33 35 30 27 20 22 24 27 29 30 32 31 31 30 31 30 30 32 34 36 35 36 36 36 35 38 41 46 51 55 58 60
34 35 26 21 24 25 28 31 32 33 33 34 34 33 34 35 35 37 37 36 34 36 36 36 39 43 47 52 56 60 61 62
Wind_Direction
73 85 103 97 91 88 89 100 107 135 155 166 140 152 157 127 135 145 164 155 155 165 184 190 202 207 205 210 221 232 247 262
106 96 96 97 92 96 99 91 95 107 117 126 134 131 124 117 124 167 163 162 160 189 205 211 211 210 212 221 236 250 257 267
139 136 122 117 107 84 95 108 113 134 117 126 124 138 141 153 175 181 189 170 199 206 216 213 219 224 228 240 251 259 267 277
103 123 131 129 124 127 125 120 123 127 145 141 144 155 161 152 182 206 194 199 203 210 218 220 221 230 242 248 257 269 280 287
138 109 109 118 127 140 146 150 151 151 156 160 166 181 179 146 164 250 239 228 227 229 229 231 229 228 245 262 271 275 281 288
172 154 136 108 135 168 170 181 171 188 188 193 205 209 194 192 227 255 255 253 246 237 228 232 241 245 261 263 268 275 284 286
272 240 268 273 224 319 293 257 248 303 306 289 294 280 258 243 244 256 261 262 255 248 244 239 236 243 261 273 262 269 286 291
251 263 271 269 278 290 299 295 275 270 275 279 280 280 266 248 245 268 267 259 256 258 260 240 246 245 251 269 272 276 285 288
242 239 273 287 273 266 299 281 265 256 253 257 261 264 266 262 261 267 261 255 275 282 258 260 260 257 253 265 276 277 286 288
253 250 260 275 282 283 288 277 274 271 269 268 266 255 260 257 262 263 255 252 261 278 262 255 268 255 267 280 279 285 294 293
263 278 281 265 276 284 290 286 281 279 282 281 282 271 274 279 268 265 258 259 251 259 244 264 266 266 274 295 294 293 296 300
255 260 265 257 263 268 270 275 282 283 280 269 282 256 260 264 269 272 262 264 257 255 257 269 274 285 295 294 298 300 299 301
262 264 269 265 257 264 281 284 271 275 272 265 266 270 265 265 258 259 288 254 275 267 306 298 290 290 300 300 298 298 300 303
270 276 275 277 268 269 274 277 284 276 275 279 272 273 272 262 297 288 294 294 274 295 298 290 289 293 295 297 296 299 302 303
291 286 269 282 292 285 282 279 277 278 284 285 289 292 297 293 287 285 295 294 298 297 295 293 294 296 297 296 299 301 302 302
262 263 238 275 282 281 284 283 281 279 279 282 283 282 284 287 289 295 297 296 293 290 293 293 294 295 296 295 297 298 299 299
270 262 260 279 279 270 275 275 274 274 277 279 282 283 286 290 290 291 288 286 288 289 287 288 288 289 290 294 298 300 300 302
265 266 271 265 267 276 277 273 276 279 280 279 278 279 283 289 288 286 281 280 282 282 282 286 290 292 294 297 299 300 303 303
264 268 257 268 277 274 276 277 275 276 280 279 278 281 282 283 282 283 284 286 288 289 288 289 290 292 295 297 300 301 301 302